Location: Be Hoi Lekpe
(6.5991°N, 10.8888°W)
Time: 17:54:27
(UTC+00:00)

Daily predictions for brighter satellites

Satellite Brightness Start Highest point End
(mag) Time Altitude Azimuth Time Altitude Azimuth Time Altitude Azimuth
H-2A R/B 1.7 19:14:54 10° NW 19:16:55 38° NE 19:21:46 10° ESE
CSL-04 DEB 4.3 19:19:52 10° NNE 19:23:50 72° ESE 19:27:55 10° S
PSLV R/B 3.8 19:21:14 10° NNE 19:25:15 75° ESE 19:29:17 10° S
Cosmos 1908 Rocket 4.1 19:26:56 10° NNE 19:30:55 37° E 19:34:55 10° SSE
Cosmos 1066 Rocket 4.1 19:27:03 10° S 19:32:31 68° E 19:37:52 10° NNE
Atlas Centaur 2 2.9 19:29:46 10° NNW 19:32:43 22° NNE 19:36:00 10° E
Cosmos 1689 Rocket 2.5 19:30:12 10° NNE 19:32:48 35° E 19:35:26 10° S
H-2A R/B 2.0 19:28:48 10° SSE 19:33:56 79° ENE 19:39:13 10° N
Cosmos 1378 3.9 19:33:45 10° SSW 19:37:25 56° W 19:41:04 10° N
Okean O Rocket 3.2 19:33:42 10° SSW 19:37:43 36° WSW 19:41:44 10° NW
SL-16 R/B 3.0 19:33:03 10° SSE 19:37:51 28° ESE 19:42:37 10° NE
SAR-Lupe-4 4.3 19:36:12 10° NE 19:39:21 30° E 19:42:31 10° SSE
Cosmos 2322 Rocket 3.3 19:35:50 10° SSE 19:40:02 21° ESE 19:44:12 10° NE
Genesis I 3.4 19:37:41 10° SSW 19:41:23 72° WNW 19:45:08 10° NNE
GPS 2-12 Rocket1 3.1 19:37:15 10° WNW 19:41:38 67° NNE 19:45:19 15° E
SAR-Lupe-1 4.4 19:41:32 10° NNE 19:44:55 43° E 19:48:20 10° S
ERS-2 3.1 19:44:36 10° NE 19:47:41 26° ESE 19:50:26 12° SSE
CZ-4 R/B 1.2 19:43:54 10° SSE 19:47:43 71° ENE 19:51:32 10° N
Cosmos 2218 Rocket 4.0 19:42:35 10° N 19:48:55 71° E 19:55:09 10° S
Cosmos 1624 Rocket 4.0 19:43:59 10° S 19:49:18 77° ESE 19:54:36 10° NNE
GPS 2-18 Rocket1 3.1 19:51:16 10° WSW 19:55:09 87° NNW 19:58:33 13° ENE
ARGOS 3.1 19:51:22 10° SSE 19:56:44 82° ENE 20:02:06 10° N
Cosmos 1980 Rocket 4.3 19:52:43 10° SW 19:57:35 30° WNW 20:02:26 10° NNW
ARIANE 44L R/B 2.1 19:57:37 10° W 19:59:44 53° S 20:01:52 24° ESE
TRAILBLAZER 4.4 19:55:34 10° SSW 19:59:59 77° ESE 20:04:28 10° NNE
Centaur D-1AR AC-36 4.0 20:00:40 10° N 20:01:50 11° NNE 20:03:05 10° NNE
Cosmos 1782 Rocket 3.5 20:03:44 10° N 20:07:59 58° E 20:10:35 22° SSE
CSL-04 Rocket 4.1 20:05:15 21° SE 20:08:29 44° ENE 20:13:40 10° N
FALCON 9 DEB 3.3 20:05:55 10° SSW 20:08:21 39° SSE 20:08:21 39° SSE
Cosmos 1452 Rocket 4.1 20:12:07 27° SE 20:13:46 33° E 20:18:27 10° NE
SEDSat Delta rocket 3.4 20:10:35 10° NW 20:15:16 69° NNE 20:17:33 34° ESE
Timation 2 Rocket 4.1 20:14:57 10° N 20:21:14 63° ENE 20:24:40 29° SE
Spelda 4.1 20:17:41 10° W 20:22:13 82° S 20:38:05 18° E
Cosmos 2084 3.6 20:19:38 10° NNW 20:24:10 62° ENE 20:25:12 47° ESE
USA 234 3.3 20:20:56 30° ESE 20:24:16 61° NE 20:30:42 10° NNW
ATLAS 3B R/B 4.4 20:29:24 13° ENE 20:29:24 13° ENE 20:30:16 10° NE
Cosmos 2251 Rocket 3.6 20:23:04 10° N 20:28:17 58° ENE 20:29:41 44° SE
ATLAS 5 CENTAUR R/B 1.7 20:25:59 10° WSW 20:27:10 23° WSW 20:27:10 23° WSW
ARIANE 42L R/B 3.6 20:08:00 10° W 20:28:21 68° S 20:30:05 41° ESE
YAOGAN 1 4.2 20:25:02 10° SSW 20:28:54 33° W 20:32:47 10° NW
FALCON 9 DEB 4.3 20:26:39 10° SW 20:29:33 39° NW 20:32:26 10° NNE
Cosmos 1805 4.0 20:29:06 10° N 20:31:49 37° NE 20:31:49 37° NE
Sich 1 Rocket 3.9 20:28:38 10° NNE 20:32:21 45° ENE 20:32:21 45° ENE
Hubble Space Telescope 2.8 20:30:20 10° NNW 20:32:59 16° NNE 20:33:35 16° NE
FALCON 9 DEB 3.8 20:30:14 10° SW 20:32:36 44° WSW 20:32:36 44° WSW
Okean 2 4.4 20:37:44 34° NE 20:37:44 34° NE 20:40:15 10° NNE
Lacrosse 5 rocket 2.6 20:33:01 10° SW 20:36:48 38° WNW 20:40:22 10° N
GPS 2-17 Rocket1 3.6 20:32:50 10° SW 20:36:07 40° SSW 20:36:07 40° SSW
Ariane H10-3 4.3 20:31:52 10° W 20:39:44 24° SSW 20:40:25 24° SSW
CSL-04 Debris 4.3 20:38:11 27° S 20:41:12 69° WSW 20:46:32 10° NNW
OAO 3 Copernicus 4.4 20:39:06 10° WNW 20:44:04 62° SW 20:44:37 58° S
Cosmos 1378 Rocket 3.4 20:45:10 86° NW 20:45:10 86° NW 20:49:26 10° N
Cosmos 2219 3.9 20:44:49 10° NNW 20:50:19 49° WSW 20:53:03 28° SSW
Cosmos 2297 Rocket 3.5 20:47:39 10° NW 20:52:47 36° WSW 20:56:02 20° SSW
Meteor 1-15 Rocket 4.2 20:47:55 10° N 20:53:49 85° E 20:54:45 65° SSE
Meteor 2-20 4.4 20:54:40 61° E 20:54:40 61° E 21:00:28 10° NNE
Cosmos 2227 Rocket 2.9 20:51:12 10° NNW 20:56:37 49° WSW 20:58:40 34° SSW
BLOCK DM-SL R/B 4.1 20:51:30 10° WSW 21:00:39 45° S 21:00:44 45° S
Ariane Rocket 4.4 21:12:55 28° NNE 21:12:55 28° NNE 21:15:26 10° N
USA 215 3.9 21:07:14 10° NE 21:16:20 40° SSW 21:20:18 10° SSW
Atlas Centaur 2 3.5 21:17:19 10° WNW 21:19:00 23° W 21:19:00 23° W
Cosmos 2360 Rocket 2.7 21:22:25 56° NW 21:22:25 56° NW 21:27:20 10° N
Cosmos 2322 Rocket 4.1 21:19:02 10° SW 21:23:45 27° WNW 21:28:29 10° NNW
ATLAS 3B R/B 4.3 22:16:20 27° NW 22:16:20 27° NW 22:20:44 10° N
